Location: Arrodets-la-Barthe
(43.0306°N, 0.2829°E)
Time: 05:16:25
(UTC+00:00)

Cosmos 2278 - Pass Details

Date: 31 May 2022
Orbit: 838 x 854 km, 71.1° (Epoch: 03 July)

Event Time Altitude Azimuth Distance (km) Brightness Sun altitude
Rises 22:06:03 0° 257° (WSW) 3,394 7.0 -20.2°
Reaches altitude 10° 22:09:37 10° 280° (W) 2,467 6.6 -20.4°
Maximum altitude 22:12:51 15° 315° (NW) 2,118 6.7 -20.7°
Drops below altitude 10° 22:16:06 10° 351° (N) 2,480 7.2 -21.0°
Sets 22:19:43 0° 14° (NNE) 3,423 7.7 -21.2°
